This demonstration page uses our WeatherBlox Daily Observations layout. Learn more.

Left ArrowRight Arrow

Hourly Observations for February 23, 2016

Temp ( °F °C ) Dew Point ( °F °C ) Humidity (%) Winds ( mph kmh ) Pressure ( in mb ) Visibility ( mi km ) Precip ( " mm )
12:53 am 00:53 Clear 23 -5 17 -8.3 78 78 SW 12 19 30.29 1026 10 16 0.00 0.00
1:53 am 01:53 Clear 24 -4.4 17 -8.3 75 75 SW 12 19 30.29 1026 10 16 0.00 0.00
2:53 am 02:53 Clear 24 -4.4 18 -7.8 77 77 SW 13 20 30.30 1026 10 16 0.00 0.00
3:53 am 03:53 Clear 25 -3.9 18 -7.8 75 75 SW 15 24 30.31 1026 10 16 0.00 0.00
4:53 am 04:53 Clear 27 -2.8 18 -7.8 69 69 SW 17 28 30.32 1027 10 16 0.00 0.00
5:53 am 05:53 Clear 25 -3.9 18 -7.8 75 75 SW 23 37 30.34 1028 10 16 0.00 0.00
6:53 am 06:53 Clear 25 -3.9 17 -8.3 72 72 SW 18 30 30.35 1028 10 16 0.00 0.00
7:53 am 07:53 Sunny 26 -3.3 18 -7.8 71 71 SW 20 31 30.36 1028 10 16 0.00 0.00
8:53 am 08:53 Sunny 31 -0.6 19 -7.2 61 61 SW 20 31 30.35 1028 10 16 0.00 0.00
9:53 am 09:53 Sunny 34 1.1 20 -6.7 56 56 SW 18 30 30.35 1028 10 16 0.00 0.00
10:53 am 10:53 Sunny 38 3.3 20 -6.7 48 48 SW 14 22 30.34 1027 10 16 0.00 0.00
11:53 am 11:53 Sunny 41 5 21 -6.1 45 45 W 12 19 30.31 1027 10 16 0.00 0.00
12:53 pm 12:53 Sunny 44 6.7 20 -6.7 38 38 WSW 18 30 30.26 1025 10 16 0.00 0.00
1:53 pm 13:53 Partly Cloudy 46 7.8 19 -7.2 34 34 W 9 15 30.24 1024 10 16 0.00 0.00
2:53 pm 14:53 Mostly Sunny 46 7.8 18 -7.8 32 32 NW 9 15 30.21 1023 10 16 0.00 0.00
3:53 pm 15:53 Mostly Cloudy 46 7.8 18 -7.8 32 32 N 10 17 30.20 1023 10 16 0.00 0.00
4:53 pm 16:53 Cloudy 41 5 17 -8.3 38 38 N 12 19 30.21 1023 10 16 0.00 0.00
5:53 pm 17:53 Cloudy 39 3.9 18 -7.8 43 43 NE 8 13 30.22 1023 10 16 0.00 0.00
6:53 pm 18:53 Cloudy 38 3.3 19 -7.2 46 46 NE 10 17 30.24 1024 10 16 0.00 0.00
7:53 pm 19:53 Mostly Cloudy 34 1.1 19 -7.2 54 54 E 10 17 30.26 1025 10 16 0.00 0.00
8:53 pm 20:53 Mostly Clear 29 -1.7 18 -7.8 63 63 ENE 8 13 30.28 1025 10 16 0.00 0.00
9:53 pm 21:53 Clear 27 -2.8 18 -7.8 69 69 E 7 11 30.29 1026 10 16 0.00 0.00
10:53 pm 22:53 Clear 22 -5.6 17 -8.3 82 82 Calm 30.31 1026 10 16 0.00 0.00
11:53 pm 23:53 Clear 20 -6.7 16 -8.9 85 85 W 7 11 30.32 1027 10 16 0.00 0.00

Powered by AerisWeather